Andrews, TX

2:00 PM CDT on June 26, 2017 (GMT -0500)
Andrews

Weather History for KE11 - June, 2013

Change the Weather History Date:

Wednesday, June 26, 2013

  Actual Average (KMAF) Record (KMAF)
Temperature  
Mean Temperature 90 °F -  
Max Temperature 106 °F 92 °F 112 °F (1994)
Min Temperature 75 °F 68 °F 59 °F (1958)
Cooling Degree Days 26    
Growing Degree Days 40 (Base 50)    
Moisture  
Dew Point 54 °F    
Average Humidity 36    
Maximum Humidity 64    
Minimum Humidity 10    
Precipitation  
Precipitation 0.00 in - - ()
Sea Level Pressure  
Sea Level Pressure 29.94 in    
Wind  
Wind Speed 12 mph (SSW)    
Max Wind Speed 18 mph    
Max Gust Speed 26 mph    
Visibility 10 miles    
Events      
Averages and records for this station are not official NWS values.
T = Trace of Precipitation, MM = Missing Value Source: NWS Daily Summary

Daily Weather History Graph

Daily Weather History Graph

Search for Another Location

Airport or City:

Trip Planner

Search our weather history database for the weather conditions in past years. The results will help you decide how hot, cold, wet, or windy it might be!

Date:

Astronomy

Jun. 26, 2013 Rise Set
Actual Time 6:45 AM CDT 9:00 PM CDT
Civil Twilight 6:16 AM CDT 9:29 PM CDT
Nautical Twilight 5:41 AM CDT 10:04 PM CDT
Astronomical Twilight 5:04 AM CDT 10:41 PM CDT
Moon 11:41 PM CDT 10:26 AM CDT
Length of Visible Light 15h 12m
Length of Day
14h 15m
Waning Gibbous, 85% of the Moon is Illuminated
Jun 26
Waning Gibbous
Jun 29
Last Quarter
Jul 8
New
Jul 15
First Quarter
Jul 22
Full

Hourly Weather History & Observations

Time (CDT) Temp. Heat Index Dew Point Humidity Pressure Visibility Wind Dir Wind Speed Gust Speed Precip Events Conditions
12:15 AM 83.3 °F 84.4 °F 63.5 °F 51% 29.93 in 10.0 mi South 16.1 mph 23.0 mph N/A   Clear
12:35 AM 82.6 °F 83.8 °F 63.5 °F 52% 29.93 in 10.0 mi South 18.4 mph 26.5 mph N/A   Clear
12:55 AM 81.7 °F 83.0 °F 63.5 °F 54% 29.93 in 10.0 mi South 15.0 mph 21.9 mph N/A   Clear
1:15 AM 81.1 °F 82.5 °F 63.5 °F 55% 29.93 in 10.0 mi SSW 15.0 mph 19.6 mph N/A   Clear
1:35 AM 80.6 °F 82.0 °F 63.5 °F 56% 29.94 in 10.0 mi South 13.8 mph 21.9 mph N/A   Clear
1:55 AM 80.1 °F 81.6 °F 63.7 °F 57% 29.94 in 10.0 mi South 17.3 mph 20.7 mph N/A   Clear
2:15 AM 79.7 °F - 63.9 °F 58% 29.94 in 10.0 mi South 13.8 mph 23.0 mph N/A   Clear
2:35 AM 79.0 °F - 64.0 °F 60% 29.94 in 10.0 mi South 15.0 mph 21.9 mph N/A   Clear
2:55 AM 78.8 °F - 64.0 °F 60% 29.93 in 10.0 mi South 15.0 mph 21.9 mph N/A   Clear
3:15 AM 78.3 °F - 63.7 °F 61% 29.93 in 10.0 mi South 12.7 mph 20.7 mph N/A   Clear
3:35 AM 78.3 °F - 63.7 °F 61% 29.93 in 10.0 mi South 10.4 mph 20.7 mph N/A   Clear
3:55 AM 78.1 °F - 63.5 °F 61% 29.93 in 10.0 mi South 11.5 mph 19.6 mph N/A   Clear
4:15 AM 78.1 °F - 63.0 °F 60% 29.93 in 10.0 mi South 13.8 mph 19.6 mph N/A   Clear
4:35 AM 77.9 °F - 63.0 °F 60% 29.94 in 10.0 mi South 10.4 mph 17.3 mph N/A   Clear
4:55 AM 77.5 °F - 63.0 °F 61% 29.93 in 10.0 mi South 10.4 mph - N/A   Clear
5:15 AM 77.4 °F - 62.6 °F 60% 29.93 in 10.0 mi South 10.4 mph 16.1 mph N/A   Clear
5:35 AM 77.4 °F - 62.6 °F 60% 29.93 in 10.0 mi SSW 11.5 mph 17.3 mph N/A   Clear
5:55 AM 77.2 °F - 62.6 °F 61% 29.94 in 10.0 mi South 10.4 mph 17.3 mph N/A   Clear
6:15 AM 76.8 °F - 62.2 °F 61% 29.95 in 10.0 mi SSW 12.7 mph 17.3 mph N/A   Clear
6:35 AM 76.1 °F - 62.2 °F 62% 29.95 in 10.0 mi South 11.5 mph - N/A   Clear
6:55 AM 75.7 °F - 62.2 °F 63% 29.96 in 10.0 mi South 9.2 mph - N/A   Clear
7:15 AM 75.2 °F - 62.2 °F 64% 29.96 in 10.0 mi South 6.9 mph - N/A   Clear
7:35 AM 75.7 °F - 62.6 °F 64% 29.96 in 10.0 mi South 12.7 mph - N/A   Clear
7:55 AM 76.6 °F - 62.8 °F 62% 29.96 in 10.0 mi SSW 12.7 mph - N/A   Clear
8:15 AM 77.7 °F - 63.0 °F 60% 29.96 in 10.0 mi SSW 16.1 mph 21.9 mph N/A   Clear
8:35 AM 79.3 °F - 63.1 °F 57% 29.96 in 10.0 mi SSW 13.8 mph - N/A   Clear
8:55 AM 80.8 °F 82.2 °F 63.5 °F 56% 29.97 in 10.0 mi South 15.0 mph 18.4 mph N/A   Clear
9:15 AM 82.2 °F 83.3 °F 63.1 °F 52% 29.97 in 10.0 mi SSW 15.0 mph - N/A   Clear
9:55 AM 85.6 °F 86.6 °F 63.5 °F 47% 29.97 in 10.0 mi SSW 13.8 mph 17.3 mph N/A   Clear
10:15 AM 86.9 °F 87.8 °F 63.3 °F 45% 29.97 in 10.0 mi SSW 13.8 mph - N/A   Clear
10:35 AM 89.1 °F 89.6 °F 62.6 °F 41% 29.97 in 10.0 mi SW 12.7 mph 18.4 mph N/A   Clear
10:55 AM 90.9 °F 91.3 °F 61.9 °F 38% 29.97 in 10.0 mi SW 13.8 mph - N/A   Clear
11:15 AM 92.8 °F 92.8 °F 60.8 °F 34% 29.97 in 10.0 mi SW 9.2 mph - N/A   Clear
11:35 AM 95.5 °F 94.8 °F 58.1 °F 29% 29.97 in 10.0 mi SW 6.9 mph - N/A   Clear
11:55 AM 96.8 °F 95.5 °F 56.1 °F 26% 29.97 in 10.0 mi WSW 4.6 mph - N/A   Clear
12:15 PM 98.4 °F - 51.1 °F 20% 29.97 in 10.0 mi West 8.1 mph - N/A   Clear
12:35 PM 99.1 °F - 51.3 °F 20% 29.97 in 10.0 mi West 8.1 mph - N/A   Clear
12:55 PM 99.9 °F - 47.3 °F 17% 29.97 in 10.0 mi WSW 5.8 mph - N/A   Clear
1:15 PM 100.9 °F - 43.9 °F 14% 29.97 in 10.0 mi WSW 3.5 mph - N/A   Clear
1:35 PM 102.2 °F - 41.2 °F 12% 29.96 in 10.0 mi West 8.1 mph - N/A   Clear
1:55 PM 102.9 °F - 42.6 °F 13% 29.96 in 10.0 mi WSW 4.6 mph - N/A   Clear
2:15 PM 104.2 °F - 41.2 °F 12% 29.96 in 10.0 mi WSW 9.2 mph 18.4 mph N/A   Clear
2:35 PM 103.6 °F - 40.6 °F 12% 29.95 in 10.0 mi WSW 3.5 mph - N/A   Clear
2:55 PM 104.5 °F - 38.5 °F 10% 29.94 in 10.0 mi South 5.8 mph - N/A   Clear
3:15 PM 104.4 °F - 37.4 °F 10% 29.94 in 10.0 mi SSE 5.8 mph - N/A   Clear
3:35 PM 105.8 °F - 38.8 °F 10% 29.93 in 10.0 mi WSW 9.2 mph - N/A   Clear
3:55 PM 106.7 °F - 39.7 °F 10% 29.92 in 10.0 mi SW 10.4 mph 21.9 mph N/A   Clear
4:15 PM 105.6 °F - 41.2 °F 11% 29.92 in 10.0 mi South 3.5 mph - N/A   Clear
4:35 PM 106.2 °F - 40.8 °F 11% 29.91 in 10.0 mi SW 3.5 mph - N/A   Clear
4:55 PM 106.0 °F - 40.8 °F 11% 29.91 in 10.0 mi SSE 6.9 mph - N/A   Clear
5:15 PM 105.8 °F - 40.8 °F 11% 29.90 in 10.0 mi WSW 6.9 mph - N/A   Clear
5:35 PM 106.9 °F - 42.8 °F 11% 29.90 in 10.0 mi SW 9.2 mph 18.4 mph N/A   Clear
5:55 PM 106.2 °F - 42.6 °F 12% 29.90 in 10.0 mi South 10.4 mph - N/A   Clear
6:15 PM 104.7 °F - 43.0 °F 12% 29.89 in 10.0 mi South 8.1 mph 17.3 mph N/A   Clear
6:35 PM 105.4 °F - 42.1 °F 12% 29.89 in 10.0 mi South 5.8 mph - N/A   Clear
6:55 PM 105.4 °F - 42.6 °F 12% 29.89 in 10.0 mi South 10.4 mph 16.1 mph N/A   Clear
7:15 PM 104.2 °F - 42.8 °F 12% 29.89 in 10.0 mi South 8.1 mph - N/A   Clear
7:35 PM 104.4 °F - 43.0 °F 12% 29.89 in 10.0 mi South 6.9 mph - N/A   Clear
7:55 PM 103.3 °F - 43.0 °F 13% 29.90 in 10.0 mi South 8.1 mph - N/A   Clear
8:15 PM 102.6 °F - 43.0 °F 13% 29.90 in 10.0 mi SSW 9.2 mph - N/A   Clear
8:35 PM 101.3 °F - 43.0 °F 14% 29.90 in 10.0 mi SSE 8.1 mph - N/A   Clear
8:55 PM 99.1 °F - 43.9 °F 15% 29.90 in 10.0 mi South 5.8 mph - N/A   Clear
9:15 PM 96.6 °F - 44.6 °F 17% 29.91 in 10.0 mi South 6.9 mph - N/A   Clear
9:35 PM 94.8 °F - 51.3 °F 23% 29.91 in 10.0 mi SE 9.2 mph - N/A   Clear
9:55 PM 95.4 °F 93.2 °F 54.5 °F 25% 29.93 in 10.0 mi South 16.1 mph 23.0 mph N/A   Clear
10:15 PM 94.1 °F 93.9 °F 59.9 °F 32% 29.94 in 10.0 mi South 18.4 mph 26.5 mph N/A   Clear
10:35 PM 92.7 °F 92.9 °F 61.0 °F 35% 29.96 in 10.0 mi South 12.7 mph 25.3 mph N/A   Clear
10:55 PM 91.4 °F 91.7 °F 61.7 °F 37% 29.97 in 10.0 mi South 18.4 mph 25.3 mph N/A   Clear
11:15 PM 90.5 °F 90.7 °F 61.9 °F 38% 29.97 in 10.0 mi South 16.1 mph 23.0 mph N/A   Clear
11:35 PM 89.1 °F 89.6 °F 62.4 °F 41% 29.99 in 10.0 mi South 17.3 mph 24.2 mph N/A   Clear
11:55 PM 87.8 °F 88.8 °F 63.1 °F 44% 29.99 in 10.0 mi South 16.1 mph 24.2 mph N/A   Clear